Weather History for KBFI - March, 2013

Change the Weather History Date:

Tuesday, March 19, 2013

  Actual Average Record
Temperature  
Mean Temperature 46 °F -  
Max Temperature 55 °F 54 °F 64 °F (1998)
Min Temperature 39 °F 40 °F 27 °F (1965)
Degree Days  
Heating Degree Days 18    
Moisture  
Dew Point 35 °F    
Average Humidity 68    
Maximum Humidity 86    
Minimum Humidity 40    
Precipitation  
Precipitation 0.37 in - - ()
Sea Level Pressure  
Sea Level Pressure 29.96 in    
Wind  
Wind Speed 3 mph (ESE)    
Max Wind Speed 13 mph    
Max Gust Speed -    
Visibility 9 miles    
Events Rain    
Averages and records for this station are not official NWS values.
T = Trace of Precipitation, MM = Missing Value Source: NWS Daily Summary

Daily Weather History Graph

Daily Weather History Graph

Search for Another Location

Airport or City:

Trip Planner

Search our weather history database for the weather conditions in past years. The results will help you decide how hot, cold, wet, or windy it might be!

Date:

Astronomy

Mar. 19, 2013 Rise Set
Actual Time 7:13 AM PDT 7:21 PM PDT
Civil Twilight 6:42 AM PDT 7:51 PM PDT
Nautical Twilight 6:06 AM PDT 8:27 PM PDT
Astronomical Twilight 5:29 AM PDT 9:05 PM PDT
Moon 11:45 AM PDT (3/19) 2:35 AM PDT (3/19)
Length of Visible Light 13h 08m
Length of Day
12h 07m
Waxing Crescent, 51% of the Moon is Illuminated
Mar 19
Waxing Crescent
Mar 27
Full
Apr 2
Last Quarter
Apr 10
New
Apr 18
First Quarter

Hourly Weather History & Observations

Time (PDT) Temp. Windchill Dew Point Humidity Pressure Visibility Wind Dir Wind Speed Gust Speed Precip Events Conditions
12:53 AM 39.9 °F - 33.1 °F 77% 30.22 in 10.0 mi Calm Calm - N/A   Clear
1:53 AM 39.9 °F - 34.0 °F 79% 30.21 in 10.0 mi Calm Calm - N/A   Clear
2:53 AM 39.0 °F - 34.0 °F 82% 30.19 in 10.0 mi Calm Calm - N/A   Clear
3:53 AM 39.9 °F - 34.0 °F 79% 30.17 in 10.0 mi Calm Calm - N/A   Clear
4:53 AM 39.9 °F - 34.0 °F 79% 30.14 in 10.0 mi Calm Calm - N/A   Clear
5:53 AM 39.9 °F 35.1 °F 32.0 °F 73% 30.11 in 10.0 mi NNE 6.9 mph - N/A   Clear
6:53 AM 41.0 °F - 30.9 °F 67% 30.09 in 10.0 mi Calm Calm - N/A   Overcast
7:53 AM 41.0 °F 38.0 °F 30.9 °F 67% 30.08 in 10.0 mi North 4.6 mph - N/A   Clear
8:53 AM 42.1 °F 40.2 °F 30.9 °F 65% 30.07 in 10.0 mi NNE 3.5 mph - N/A   Overcast
9:53 AM 44.1 °F 42.5 °F 30.9 °F 60% 30.06 in 10.0 mi Variable 3.5 mph - N/A   Overcast
10:53 AM 46.9 °F - 32.0 °F 56% 30.03 in 10.0 mi Variable 3.5 mph - N/A   Overcast
11:53 AM 50.0 °F - 30.9 °F 48% 30.01 in 10.0 mi Variable 3.5 mph - N/A   Clear
12:53 PM 54.0 °F - 30.0 °F 40% 29.97 in 10.0 mi Calm Calm - N/A   Overcast
1:53 PM 54.0 °F - 30.9 °F 41% 29.94 in 10.0 mi NW 4.6 mph - N/A   Overcast
2:53 PM 54.0 °F - 34.0 °F 47% 29.92 in 10.0 mi SE 8.1 mph - 0.00 in Rain Light Rain
3:53 PM 52.0 °F - 37.0 °F 57% 29.91 in 8.0 mi ESE 8.1 mph - 0.01 in Rain Light Rain
4:53 PM 50.0 °F - 39.9 °F 68% 29.88 in 10.0 mi SSE 4.6 mph - 0.02 in Rain Light Rain
5:53 PM 48.0 °F - 41.0 °F 77% 29.86 in 6.0 mi ESE 6.9 mph - 0.04 in Rain Light Rain
6:53 PM 46.0 °F 41.4 °F 39.0 °F 76% 29.82 in 6.0 mi ESE 9.2 mph - 0.05 in Rain Light Rain
7:53 PM 45.0 °F 38.9 °F 39.0 °F 80% 29.77 in 10.0 mi SE 12.7 mph - 0.04 in Rain Light Rain
8:53 PM 45.0 °F 39.7 °F 39.0 °F 80% 29.72 in 9.0 mi SE 10.4 mph - 0.08 in Rain Light Rain
9:53 PM 45.0 °F 40.6 °F 37.9 °F 76% 29.67 in 10.0 mi ESE 8.1 mph - 0.03 in   Overcast
10:53 PM 45.0 °F - 39.9 °F 82% 29.64 in 10.0 mi Calm Calm - 0.05 in Rain Light Rain
11:53 PM 45.0 °F - 41.0 °F 86% 29.61 in 7.0 mi Calm Calm - 0.05 in Rain Light Rain